,,Stat6,,Stat2,,Stat8,,Stat9,,Stat10,,Wind1,,Wind1,
time,status,PA1M_AVG,status,PR1M_SUM,status,RH1M_AVG,status,SR1M_AVG,status,TA1M_AVG,status,W1dAve1m,status,W1sAve1m,
2006-03-17, 00:00:00,VALID,916.538,VALID,0,VALID,100,VALID,-0.0169808,VALID,19.4033,VALID,83,VALID,0.629906,
2006-03-17, 00:01:00,VALID,916.532,VALID,0,VALID,100,VALID,-0.0169808,VALID,19.218,VALID,88,VALID,0.784091,
2006-03-17, 00:02:00,VALID,916.533,VALID,0,VALID,100,VALID,-0.0169808,VALID,19.791,VALID,88,VALID,0.590701,
2006-03-17, 00:03:00,VALID,916.536,VALID,0,VALID,100,VALID,0,VALID,19.9228,VALID,89,VALID,0.762091,
2006-03-17, 00:04:00,VALID,916.533,VALID,0,VALID,100,VALID,-0.0169808,VALID,19.8422,VALID,91,VALID,0.632431,
2006-03-17, 00:05:00,VALID,916.529,VALID,0,VALID,100,VALID,-0.0849042,VALID,18.9751,VALID,89,VALID,0.612695,
2006-03-17, 00:06:00,VALID,916.522,VALID,0,VALID,100,VALID,-0.0169808,VALID,19.9972,VALID,87,VALID,0.898251,
2006-03-17, 00:07:00,VALID,916.528,VALID,0,VALID,100,VALID,0.0339617,VALID,19.752,VALID,87,VALID,0.82976,
2006-03-17, 00:08:00,VALID,916.533,VALID,0,VALID,100,VALID,0,VALID,19.4065,VALID,85,VALID,0.84517,
2006-03-17, 00:09:00,VALID,916.543,VALID,0,VALID,100,VALID,-0.0849042,VALID,19.4169,VALID,83,VALID,0.778011,
2006-03-17, 00:10:00,VALID,916.52,VALID,0,VALID,100,VALID,0,VALID,19.4565,VALID,70,VALID,0.994336,
2006-03-17, 00:11:00,VALID,916.515,VALID,0,VALID,100,VALID,0.0509425,VALID,19.7916,VALID,67,VALID,0.869444,
2006-03-17, 00:12:00,VALID,916.504,VALID,0,VALID,100,VALID,-0.0169808,VALID,20.4333,VALID,58,VALID,0.962054,
2006-03-17, 00:13:00,VALID,916.481,VALID,0,VALID,100,VALID,0.0169808,VALID,19.8082,VALID,46,VALID,0.773251,
2006-03-17, 00:14:00,VALID,916.469,VALID,0,VALID,100,VALID,0.0169808,VALID,19.7942,VALID,37,VALID,0.767299,
2006-03-17, 00:15:00,VALID,916.432,VALID,0,VALID,100,VALID,0.0169808,VALID,19.9938,VALID,35,VALID,0.857851,
2006-03-17, 00:16:00,VALID,916.422,VALID,0,VALID,100,VALID,0,VALID,19.8934,VALID,45,VALID,0.891352,
2006-03-17, 00:17:00,VALID,916.4,VALID,0,VALID,100,VALID,0.0169808,VALID,20.5086,VALID,36,VALID,0.930246,
2006-03-17, 00:18:00,VALID,916.368,VALID,0,VALID,100,VALID,0.0169808,VALID,20.0456,VALID,34,VALID,1.17543,
2006-03-17, 00:19:00,VALID,916.361,VALID,0,VALID,100,VALID,0.0169808,VALID,20.2011,VALID,34,VALID,1.1183,
2006-03-17, 00:20:00,VALID,916.363,VALID,0,VALID,100,VALID,-0.0339617,VALID,19.8694,VALID,42,VALID,0.857922,
2006-03-17, 00:21:00,VALID,916.4,VALID,0,VALID,100,VALID,0.0169808,VALID,19.644,VALID,41,VALID,1.08067,
2006-03-17, 00:22:00,VALID,916.42,VALID,0,VALID,100,VALID,0.0169808,VALID,19.8093,VALID,37,VALID,0.448828,
2006-03-17, 00:23:00,VALID,916.45,VALID,0,VALID,100,VALID,0.0509425,VALID,19.9365,VALID,32,VALID,0.173363,
2006-03-17, 00:24:00,VALID,916.474,VALID,0,VALID,100,VALID,-0.0169808,VALID,19.3895,VALID,31,VALID,0.396532,
2006-03-17, 00:25:00,VALID,916.478,VALID,0,VALID,100,VALID,-0.0509425,VALID,20.1228,VALID,31,VALID,0.491235,
2006-03-17, 00:26:00,VALID,916.491,VALID,0,VALID,100,VALID,-0.0169808,VALID,19.7708,VALID,31,VALID,0.119186,
2006-03-17, 00:27:00,VALID,916.474,VALID,0,VALID,100,VALID,-0.0169808,VALID,20.3015,VALID,31,VALID,0.227148,
2006-03-17, 00:28:00,VALID,916.471,VALID,0,VALID,100,VALID,0.0169808,VALID,19.4325,VALID,31,VALID,0.233132,
2006-03-17, 00:29:00,VALID,916.481,VALID,0,VALID,100,VALID,0,VALID,20.1869,VALID,31,VALID,0.0252404,
2006-03-17, 00:30:00,VALID,916.494,VALID,0,VALID,100,VALID,-0.0509425,VALID,20.0908,VALID,31,VALID,0.0154474,
2006-03-17, 00:31:00,VALID,916.507,VALID,0,VALID,100,VALID,-0.0339617,VALID,19.8961,VALID,22,VALID,0.292969,
2006-03-17, 00:32:00,VALID,916.507,VALID,0,VALID,100,VALID,-0.0509425,VALID,20.1105,VALID,355,VALID,0.255952,
2006-03-17, 00:33:00,VALID,916.5,VALID,0,VALID,100,VALID,0,VALID,19.5398,VALID,355,VALID,0.246838,
2006-03-17, 00:34:00,VALID,916.472,VALID,0,VALID,100,VALID,-0.0169808,VALID,19.8915,VALID,355,VALID,0.199855,
2006-03-17, 00:35:00,VALID,916.46,VALID,0,VALID,100,VALID,-0.0169808,VALID,20.3499,VALID,7,VALID,0.527716,
2006-03-17, 00:36:00,VALID,916.47,VALID,0,VALID,100,VALID,-0.0169808,VALID,19.7174,VALID,4,VALID,0.229802,
2006-03-17, 00:37:00,VALID,916.46,VALID,0,VALID,100,VALID,-0.0509425,VALID,20.2363,VALID,344,VALID,0.180831,
2006-03-17, 00:38:00,VALID,916.467,VALID,0,VALID,100,VALID,-0.0339617,VALID,19.8089,VALID,353,VALID,0.244141,
2006-03-17, 00:39:00,VALID,916.481,VALID,0,VALID,100,VALID,-0.0679233,VALID,19.9443,VALID,4,VALID,0.251234,
2006-03-17, 00:40:00,VALID,916.492,VALID,0,VALID,100,VALID,-0.0169808,VALID,19.3304,VALID,4,VALID,0,
2006-03-17, 00:41:00,VALID,916.486,VALID,0,VALID,100,VALID,-0.0509425,VALID,19.7339,VALID,4,VALID,0,
2006-03-17, 00:42:00,VALID,916.486,VALID,0,VALID,100,VALID,0.0679233,VALID,19.7391,VALID,4,VALID,0.104802,
2006-03-17, 00:43:00,VALID,916.482,VALID,0,VALID,100,VALID,0,VALID,19.2974,VALID,4,VALID,0.23371,
2006-03-17, 00:44:00,VALID,916.495,VALID,0,VALID,100,VALID,0.0169808,VALID,19.8449,VALID,4,VALID,0.0428735,
2006-03-17, 00:45:00,VALID,916.49,VALID,0,VALID,100,VALID,0.0169808,VALID,19.5848,VALID,4,VALID,0,
2006-03-17, 00:46:00,VALID,916.483,VALID,0,VALID,100,VALID,0.0169808,VALID,19.6351,VALID,4,VALID,0.106399,
2006-03-17, 00:47:00,VALID,916.476,VALID,0,VALID,100,VALID,0.0339617,VALID,20.3208,VALID,4,VALID,0.237043,
2006-03-17, 00:48:00,VALID,916.452,VALID,0,VALID,100,VALID,0,VALID,20.2445,VALID,4,VALID,0.100419,
2006-03-17, 00:49:00,VALID,916.427,VALID,0,VALID,100,VALID,-0.0679233,VALID,19.6694,VALID,4,VALID,0.183008,
2006-03-17, 00:50:00,VALID,916.393,VALID,0,VALID,100,VALID,-0.0509425,VALID,20.6429,VALID,4,VALID,0.0732195,
2006-03-17, 00:51:00,VALID,916.366,VALID,0,VALID,100,VALID,0,VALID,19.9116,VALID,70,VALID,0.369913,
2006-03-17, 00:52:00,VALID,916.369,VALID,0,VALID,100,VALID,-0.101885,VALID,20.0826,VALID,129,VALID,0.923177,
2006-03-17, 00:53:00,VALID,916.363,VALID,0,VALID,100,VALID,-0.0509425,VALID,19.8307,VALID,127,VALID,1.21208,
2006-03-17, 00:54:00,VALID,916.36,VALID,0,VALID,100,VALID,0.0169808,VALID,19.5103,VALID,132,VALID,1.16584,
2006-03-17, 00:55:00,VALID,916.369,VALID,0,VALID,100,VALID,-0.0509425,VALID,19.7982,VALID,128,VALID,0.716493,
2006-03-17, 00:56:00,VALID,916.369,VALID,0,VALID,100,VALID,-0.101885,VALID,20.1849,VALID,132,VALID,0.608789,
2006-03-17, 00:57:00,VALID,916.364,VALID,0,VALID,100,VALID,-0.0509425,VALID,19.6503,VALID,143,VALID,0.818788,
2006-03-17, 00:58:00,VALID,916.344,VALID,0,VALID,100,VALID,-0.0679233,VALID,20.0776,VALID,157,VALID,0.996433,
2006-03-17, 00:59:00,VALID,916.346,VALID,0,VALID,100,VALID,-0.0679233,VALID,19.5143,VALID,155,VALID,0.953658,
2006-03-17, 01:00:00,VALID,916.325,VALID,0,VALID,100,VALID,-0.101885,VALID,19.7012,VALID,149,VALID,0.612464,
2006-03-17, 01:01:00,VALID,916.319,VALID,0,VALID,100,VALID,-0.0679233,VALID,19.5114,VALID,149,VALID,0.227983,
2006-03-17, 01:02:00,VALID,916.303,VALID,0.2,VALID,100,VALID,-0.0679233,VALID,19.3523,VALID,149,VALID,0.174293,
2006-03-17, 01:03:00,VALID,916.273,VALID,0.2,VALID,100,VALID,-0.0339617,VALID,20.1853,VALID,149,VALID,0.276042,
2006-03-17, 01:04:00,VALID,916.247,VALID,0.6,VALID,100,VALID,-0.0339617,VALID,20.164,VALID,149,VALID,0.186612,
2006-03-17, 01:05:00,VALID,916.227,VALID,0.6,VALID,100,VALID,-0.0339617,VALID,19.6862,VALID,149,VALID,0.0963542,
2006-03-17, 01:06:00,VALID,916.198,VALID,0.4,VALID,100,VALID,-0.0509425,VALID,20.2531,VALID,49,VALID,0.612909,
2006-03-17, 01:07:00,VALID,916.169,VALID,0.2,VALID,100,VALID,-0.0849042,VALID,19.7002,VALID,49,VALID,0.731179,
2006-03-17, 01:08:00,VALID,916.144,VALID,0.2,VALID,100,VALID,-0.0679233,VALID,19.7875,VALID,48,VALID,1.04279,
2006-03-17, 01:09:00,VALID,916.137,VALID,0.4,VALID,100,VALID,0.0679233,VALID,19.7578,VALID,37,VALID,1.11142,
2006-03-17, 01:10:00,VALID,916.132,VALID,0.4,VALID,100,VALID,0.0849042,VALID,20.3859,VALID,19,VALID,1.36776,
2006-03-17, 01:11:00,VALID,916.112,VALID,0.4,VALID,100,VALID,0.0849042,VALID,19.8161,VALID,30,VALID,1.37582,
2006-03-17, 01:12:00,VALID,916.096,VALID,1,VALID,100,VALID,0.0509425,VALID,20.0802,VALID,31,VALID,0.933503,
2006-03-17, 01:13:00,VALID,916.047,VALID,1,VALID,100,VALID,0.0509425,VALID,20.274,VALID,52,VALID,1.25725,
2006-03-17, 01:14:00,VALID,916.013,VALID,0.4,VALID,100,VALID,-0.0169808,VALID,20.2459,VALID,95,VALID,0.988636,
2006-03-17, 01:15:00,VALID,916.018,VALID,0.6,VALID,100,VALID,-0.0509425,VALID,19.6481,VALID,119,VALID,0.670201,
2006-03-17, 01:16:00,VALID,915.995,VALID,0.6,VALID,100,VALID,-0.0169808,VALID,19.4842,VALID,120,VALID,0.566406,
2006-03-17, 01:17:00,VALID,915.973,VALID,0.2,VALID,100,VALID,0,VALID,20.1132,VALID,107,VALID,0.62128,
2006-03-17, 01:18:00,VALID,915.956,VALID,0.2,VALID,100,VALID,-0.0509425,VALID,19.5251,VALID,43,VALID,1.10957,
2006-03-17, 01:19:00,VALID,915.969,VALID,0,VALID,100,VALID,-0.0509425,VALID,20.3539,VALID,37,VALID,1.2668,
2006-03-17, 01:20:00,VALID,915.959,VALID,0,VALID,100,VALID,-0.0169808,VALID,19.001,VALID,43,VALID,1.10429,
2006-03-17, 01:21:00,VALID,915.932,VALID,0,VALID,100,VALID,-0.0509425,VALID,20.2743,VALID,41,VALID,0.959223,
2006-03-17, 01:22:00,VALID,915.908,VALID,0.2,VALID,100,VALID,-0.0169808,VALID,19.5197,VALID,45,VALID,1.13504,
2006-03-17, 01:23:00,VALID,915.858,VALID,0,VALID,100,VALID,-0.0169808,VALID,19.5591,VALID,54,VALID,1.26427,
2006-03-17, 01:24:00,VALID,915.815,VALID,0,VALID,100,VALID,-0.0679233,VALID,19.3215,VALID,76,VALID,1.21129,
2006-03-17, 01:25:00,VALID,915.766,VALID,0,VALID,100,VALID,0,VALID,18.6943,VALID,101,VALID,1.00836,
2006-03-17, 01:26:00,VALID,915.723,VALID,0,VALID,100,VALID,-0.0169808,VALID,19.6552,VALID,105,VALID,0.982887,
2006-03-17, 01:27:00,VALID,915.707,VALID,0,VALID,100,VALID,-0.0339617,VALID,21.2586,VALID,115,VALID,0.931055,
2006-03-17, 01:28:00,VALID,915.671,VALID,0,VALID,100,VALID,-0.0509425,VALID,19.4909,VALID,113,VALID,0.664236,
2006-03-17, 01:29:00,VALID,915.654,VALID,0,VALID,100,VALID,-0.0509425,VALID,19.2357,VALID,117,VALID,0.473899,
2006-03-17, 01:30:00,VALID,915.641,VALID,0,VALID,100,VALID,0,VALID,22.4281,VALID,107,VALID,0.917039,
2006-03-17, 01:31:00,VALID,915.632,VALID,0,VALID,100,VALID,0.0339617,VALID,18.552,VALID,103,VALID,0.779492,
2006-03-17, 01:32:00,VALID,915.606,VALID,0,VALID,100,VALID,-0.0679233,VALID,19.8671,VALID,107,VALID,0.933416,
2006-03-17, 01:33:00,VALID,915.61,VALID,0,VALID,100,VALID,-0.0509425,VALID,19.7697,VALID,108,VALID,0.502232,
2006-03-17, 01:34:00,VALID,915.588,VALID,0,VALID,100,VALID,-0.0339617,VALID,19.7633,VALID,109,VALID,0.291349,
2006-03-17, 01:35:00,VALID,915.56,VALID,0,VALID,100,VALID,-0.0509425,VALID,19.9144,VALID,109,VALID,0.154797,
2006-03-17, 01:36:00,VALID,915.533,VALID,0,VALID,100,VALID,-0.0679233,VALID,20.0753,VALID,109,VALID,0.00747283,
2006-03-17, 01:37:00,VALID,915.508,VALID,0,VALID,100,VALID,-0.0339617,VALID,19.8034,VALID,105,VALID,0.323509,
2006-03-17, 01:38:00,VALID,915.487,VALID,0,VALID,100,VALID,-0.0339617,VALID,19.5796,VALID,84,VALID,0.552539,
2006-03-17, 01:39:00,VALID,915.494,VALID,0,VALID,100,VALID,-0.0849042,VALID,20.1986,VALID,64,VALID,0.813743,
2006-03-17, 01:40:00,VALID,915.491,VALID,0,VALID,100,VALID,0.0339617,VALID,19.2882,VALID,54,VALID,0.777716,
2006-03-17, 01:41:00,VALID,915.527,VALID,0,VALID,100,VALID,0.0339617,VALID,19.5502,VALID,44,VALID,0.9,
2006-03-17, 01:42:00,VALID,915.553,VALID,0,VALID,100,VALID,0.0509425,VALID,19.3925,VALID,29,VALID,0.654251,
2006-03-17, 01:43:00,VALID,915.57,VALID,0,VALID,100,VALID,0.0169808,VALID,19.6237,VALID,24,VALID,0.639323,
2006-03-17, 01:44:00,VALID,915.592,VALID,0,VALID,100,VALID,0,VALID,19.6682,VALID,331,VALID,0.939258,
2006-03-17, 01:45:00,VALID,915.602,VALID,0,VALID,100,VALID,0.0169808,VALID,19.5049,VALID,294,VALID,0.725713,
2006-03-17, 01:46:00,VALID,915.619,VALID,0,VALID,100,VALID,0.0169808,VALID,19.4799,VALID,292,VALID,0.204942,
2006-03-17, 01:47:00,VALID,915.623,VALID,0,VALID,100,VALID,0.0339617,VALID,19.3626,VALID,292,VALID,0.142188,
2006-03-17, 01:48:00,VALID,915.596,VALID,0,VALID,100,VALID,0.0339617,VALID,19.6841,VALID,292,VALID,0.207127,
2006-03-17, 01:49:00,VALID,915.582,VALID,0,VALID,100,VALID,0.0339617,VALID,19.6276,VALID,292,VALID,0.436384,
2006-03-17, 01:50:00,VALID,915.551,VALID,0,VALID,100,VALID,0.0339617,VALID,19.9777,VALID,288,VALID,0.473133,
2006-03-17, 01:51:00,VALID,915.51,VALID,0,VALID,100,VALID,0.0509425,VALID,19.5075,VALID,243,VALID,0.524503,
2006-03-17, 01:52:00,VALID,915.475,VALID,0,VALID,100,VALID,0.0679233,VALID,19.4545,VALID,222,VALID,0.46875,
2006-03-17, 01:53:00,VALID,915.455,VALID,0,VALID,100,VALID,0,VALID,20.2553,VALID,204,VALID,0.525856,
2006-03-17, 01:54:00,VALID,915.426,VALID,0,VALID,100,VALID,0.0509425,VALID,19.4858,VALID,207,VALID,0.846077,
2006-03-17, 01:55:00,VALID,915.398,VALID,0,VALID,100,VALID,0.0169808,VALID,19.8554,VALID,223,VALID,0.936458,
2006-03-17, 01:56:00,VALID,915.37,VALID,0,VALID,100,VALID,0.0509425,VALID,19.4352,VALID,213,VALID,0.484933,
2006-03-17, 01:57:00,VALID,915.341,VALID,0,VALID,100,VALID,0.0339617,VALID,19.5467,VALID,243,VALID,0.587153,
2006-03-17, 01:58:00,VALID,915.324,VALID,0,VALID,100,VALID,0,VALID,19.2214,VALID,249,VALID,0.104167,
2006-03-17, 01:59:00,VALID,915.315,VALID,0,VALID,100,VALID,0.0169808,VALID,19.3196,VALID,243,VALID,0.235742,
2006-03-17, 02:00:00,VALID,915.295,VALID,0,VALID,100,VALID,0.0849042,VALID,19.999,VALID,242,VALID,0.10119,
2006-03-17, 02:01:00,VALID,915.277,VALID,0,VALID,100,VALID,0.0339617,VALID,20.1278,VALID,242,VALID,0.0740234,
2006-03-17, 02:02:00,VALID,915.244,VALID,0,VALID,100,VALID,0,VALID,19.2227,VALID,212,VALID,0.301897,
2006-03-17, 02:03:00,VALID,915.212,VALID,0,VALID,100,VALID,0.0339617,VALID,19.8669,VALID,153,VALID,0.573289,
2006-03-17, 02:04:00,VALID,915.207,VALID,0,VALID,100,VALID,0.0339617,VALID,19.7654,VALID,132,VALID,0.714749,
2006-03-17, 02:05:00,VALID,915.186,VALID,0,VALID,100,VALID,0.0509425,VALID,19.7034,VALID,143,VALID,0.652148,
2006-03-17, 02:06:00,VALID,915.181,VALID,0,VALID,100,VALID,-0.0849042,VALID,19.0709,VALID,145,VALID,0.620561,
2006-03-17, 02:07:00,VALID,915.159,VALID,0,VALID,100,VALID,-0.0509425,VALID,19.2055,VALID,138,VALID,0.664608,
2006-03-17, 02:08:00,VALID,915.144,VALID,0,VALID,100,VALID,-0.0509425,VALID,19.5929,VALID,138,VALID,0.531467,
2006-03-17, 02:09:00,VALID,915.132,VALID,0,VALID,100,VALID,-0.0849042,VALID,19.3731,VALID,131,VALID,0.442708,
2006-03-17, 02:10:00,VALID,915.122,VALID,0,VALID,100,VALID,-0.0679233,VALID,19.3964,VALID,131,VALID,0.25293,
2006-03-17, 02:11:00,VALID,915.117,VALID,0,VALID,100,VALID,0,VALID,19.0147,VALID,131,VALID,0.457889,
2006-03-17, 02:12:00,VALID,915.116,VALID,0,VALID,100,VALID,0.0679233,VALID,19.3523,VALID,129,VALID,0.492914,
2006-03-17, 02:13:00,VALID,915.111,VALID,0,VALID,100,VALID,0.0169808,VALID,19.0709,VALID,121,VALID,0.629167,
2006-03-17, 02:14:00,VALID,915.104,VALID,0,VALID,100,VALID,0.0509425,VALID,19.5738,VALID,100,VALID,0.864397,
2006-03-17, 02:15:00,VALID,915.094,VALID,0,VALID,100,VALID,-0.0509425,VALID,19.0157,VALID,96,VALID,0.897928,
2006-03-17, 02:16:00,VALID,915.071,VALID,0,VALID,100,VALID,0,VALID,19.7121,VALID,100,VALID,0.943314,
2006-03-17, 02:17:00,VALID,915.041,VALID,0,VALID,100,VALID,0,VALID,19.2724,VALID,100,VALID,0.833452,
2006-03-17, 02:18:00,VALID,915.01,VALID,0,VALID,100,VALID,0,VALID,19.4788,VALID,101,VALID,0.872582,
2006-03-17, 02:19:00,VALID,914.98,VALID,0,VALID,100,VALID,0,VALID,19.3737,VALID,101,VALID,0.852344,
2006-03-17, 02:20:00,VALID,914.958,VALID,0,VALID,100,VALID,-0.0169808,VALID,19.865,VALID,94,VALID,0.924964,
2006-03-17, 02:21:00,VALID,914.938,VALID,0,VALID,100,VALID,-0.0339617,VALID,19.5068,VALID,83,VALID,0.992932,
2006-03-17, 02:22:00,VALID,914.913,VALID,0,VALID,100,VALID,-0.0339617,VALID,19.9934,VALID,80,VALID,1.01766,
2006-03-17, 02:23:00,VALID,914.901,VALID,0,VALID,100,VALID,-0.0679233,VALID,19.2295,VALID,81,VALID,1.05452,
2006-03-17, 02:24:00,VALID,914.873,VALID,0,VALID,100,VALID,-0.101885,VALID,19.717,VALID,83,VALID,1.05942,
2006-03-17, 02:25:00,VALID,914.859,VALID,0,VALID,100,VALID,-0.0339617,VALID,19.1522,VALID,90,VALID,1.14676,
2006-03-17, 02:26:00,VALID,914.832,VALID,0,VALID,100,VALID,-0.0339617,VALID,18.8066,VALID,77,VALID,1.26146,
2006-03-17, 02:27:00,VALID,914.81,VALID,0,VALID,100,VALID,0.0509425,VALID,18.6523,VALID,61,VALID,1.21039,
2006-03-17, 02:28:00,VALID,914.807,VALID,0,VALID,100,VALID,-0.0679233,VALID,19.5372,VALID,61,VALID,1.24591,
2006-03-17, 02:29:00,VALID,914.783,VALID,0,VALID,100,VALID,-0.0509425,VALID,18.5108,VALID,71,VALID,1.43205,
2006-03-17, 02:30:00,VALID,914.766,VALID,0,VALID,100,VALID,-0.0679233,VALID,18.8328,VALID,102,VALID,1.50021,
2006-03-17, 02:31:00,VALID,914.735,VALID,0,VALID,100,VALID,-0.0509425,VALID,19.1663,VALID,112,VALID,1.44355,
2006-03-17, 02:32:00,VALID,914.702,VALID,0,VALID,100,VALID,-0.0679233,VALID,19.3243,VALID,119,VALID,1.41139,
2006-03-17, 02:33:00,VALID,914.683,VALID,0,VALID,100,VALID,-0.0849042,VALID,19.2378,VALID,111,VALID,1.42813,
2006-03-17, 02:34:00,VALID,914.665,VALID,0,VALID,100,VALID,-0.0339617,VALID,19.5199,VALID,123,VALID,0.944568,
2006-03-17, 02:35:00,VALID,914.654,VALID,0,VALID,100,VALID,0,VALID,19.2172,VALID,130,VALID,0.869368,
2006-03-17, 02:36:00,VALID,914.651,VALID,0,VALID,100,VALID,-0.0339617,VALID,18.9556,VALID,144,VALID,0.680778,
2006-03-17, 02:37:00,VALID,914.642,VALID,0,VALID,100,VALID,-0.0679233,VALID,19.1657,VALID,134,VALID,0.821837,
2006-03-17, 02:38:00,VALID,914.645,VALID,0,VALID,100,VALID,-0.0339617,VALID,18.8278,VALID,140,VALID,1.57133,
2006-03-17, 02:39:00,VALID,914.645,VALID,0,VALID,100,VALID,0.0509425,VALID,18.9833,VALID,139,VALID,1.50242,
2006-03-17, 02:40:00,VALID,914.647,VALID,0,VALID,100,VALID,0.0509425,VALID,18.5257,VALID,144,VALID,1.35193,
2006-03-17, 02:41:00,VALID,914.636,VALID,0,VALID,100,VALID,0,VALID,19.2785,VALID,148,VALID,1.69717,
2006-03-17, 02:42:00,VALID,914.64,VALID,0,VALID,100,VALID,-0.0169808,VALID,19.5858,VALID,152,VALID,1.6815,
2006-03-17, 02:43:00,VALID,914.659,VALID,0,VALID,100,VALID,-0.0509425,VALID,19.8121,VALID,141,VALID,1.20368,
2006-03-17, 02:44:00,VALID,914.68,VALID,0,VALID,100,VALID,-0.0339617,VALID,19.8973,VALID,139,VALID,0.924414,
2006-03-17, 02:45:00,VALID,914.682,VALID,0,VALID,100,VALID,-0.0509425,VALID,18.9794,VALID,147,VALID,1.35029,
2006-03-17, 02:46:00,VALID,914.69,VALID,0,VALID,100,VALID,-0.0339617,VALID,20.1127,VALID,141,VALID,1.12481,
2006-03-17, 02:47:00,VALID,914.673,VALID,0,VALID,100,VALID,-0.0169808,VALID,19.5035,VALID,130,VALID,1.24073,
2006-03-17, 02:48:00,VALID,914.662,VALID,0,VALID,100,VALID,-0.0169808,VALID,19.4676,VALID,130,VALID,1.17039,
2006-03-17, 02:49:00,VALID,914.622,VALID,0,VALID,100,VALID,0,VALID,19.7253,VALID,130,VALID,1.29554,
2006-03-17, 02:50:00,VALID,914.576,VALID,0,VALID,100,VALID,-0.0339617,VALID,19.5466,VALID,129,VALID,1.1584,
2006-03-17, 02:51:00,VALID,914.518,VALID,0,VALID,100,VALID,-0.0339617,VALID,18.7434,VALID,133,VALID,1.30393,
2006-03-17, 02:52:00,VALID,914.485,VALID,0,VALID,100,VALID,-0.0169808,VALID,19.4428,VALID,132,VALID,1.61879,
2006-03-17, 02:53:00,VALID,914.443,VALID,0,VALID,100,VALID,-0.0169808,VALID,19.7444,VALID,133,VALID,1.96911,
2006-03-17, 02:54:00,VALID,914.432,VALID,0,VALID,100,VALID,0.0849042,VALID,19.1517,VALID,126,VALID,1.61787,
2006-03-17, 02:55:00,VALID,914.405,VALID,0,VALID,100,VALID,0.0679233,VALID,19.2534,VALID,122,VALID,1.91181,
2006-03-17, 02:56:00,VALID,914.397,VALID,0,VALID,100,VALID,0.0679233,VALID,19.0113,VALID,119,VALID,1.61365,
2006-03-17, 02:57:00,VALID,914.405,VALID,0,VALID,100,VALID,0.0849042,VALID,19.7451,VALID,125,VALID,1.3404,
2006-03-17, 02:58:00,VALID,914.394,VALID,0,VALID,100,VALID,0.0849042,VALID,18.7742,VALID,122,VALID,1.32158,
2006-03-17, 02:59:00,VALID,914.398,VALID,0,VALID,100,VALID,-0.0169808,VALID,19.1791,VALID,122,VALID,1.56613,
2006-03-17, 03:00:00,VALID,914.381,VALID,0,VALID,100,VALID,0.0339617,VALID,19.373,VALID,131,VALID,1.3497,
2006-03-17, 03:01:00,VALID,914.396,VALID,0,VALID,100,VALID,0,VALID,19.3212,VALID,124,VALID,1.3787,
2006-03-17, 03:02:00,VALID,914.395,VALID,0,VALID,100,VALID,0.0169808,VALID,19.7712,VALID,132,VALID,1.26544,
2006-03-17, 03:03:00,VALID,914.388,VALID,0,VALID,100,VALID,0,VALID,19.0088,VALID,144,VALID,1.10642,
2006-03-17, 03:04:00,VALID,914.387,VALID,0,VALID,100,VALID,0,VALID,19.2221,VALID,147,VALID,1.26486,
2006-03-17, 03:05:00,VALID,914.389,VALID,0,VALID,100,VALID,0,VALID,19.4853,VALID,158,VALID,1.00817,
2006-03-17, 03:06:00,VALID,914.385,VALID,0,VALID,100,VALID,-0.0169808,VALID,18.5455,VALID,157,VALID,1.3776,
2006-03-17, 03:07:00,VALID,914.394,VALID,0,VALID,100,VALID,0,VALID,19.5377,VALID,146,VALID,1.31582,
2006-03-17, 03:08:00,VALID,914.414,VALID,0,VALID,100,VALID,0.0169808,VALID,19.2995,VALID,143,VALID,1.0712,
2006-03-17, 03:09:01,VALID,914.431,VALID,0,VALID,100,VALID,0.0169808,VALID,18.7591,VALID,149,VALID,1.33873,
2006-03-17, 03:10:00,VALID,914.447,VALID,0,VALID,100,VALID,0,VALID,19.2635,VALID,146,VALID,0.775484,
2006-03-17, 03:11:00,VALID,914.454,VALID,0,VALID,100,VALID,0,VALID,19.284,VALID,139,VALID,1.32919,
2006-03-17, 03:12:00,VALID,914.486,VALID,0,VALID,100,VALID,0,VALID,19.2313,VALID,158,VALID,1.12936,
2006-03-17, 03:13:00,VALID,914.495,VALID,0,VALID,100,VALID,0,VALID,18.912,VALID,151,VALID,1.2048,
2006-03-17, 03:14:00,VALID,914.508,VALID,0,VALID,100,VALID,0,VALID,19.5712,VALID,140,VALID,1.27235,
2006-03-17, 03:15:00,VALID,914.519,VALID,0,VALID,100,VALID,0.0169808,VALID,19.6008,VALID,137,VALID,0.827009,
2006-03-17, 03:16:00,VALID,914.53,VALID,0,VALID,100,VALID,0.0169808,VALID,19.4882,VALID,137,VALID,1.07227,
2006-03-17, 03:17:00,VALID,914.543,VALID,0,VALID,100,VALID,0.0509425,VALID,19.2741,VALID,137,VALID,0.879297,
2006-03-17, 03:18:00,VALID,914.543,VALID,0,VALID,100,VALID,0.0339617,VALID,19.0896,VALID,135,VALID,0.859756,
2006-03-17, 03:19:00,VALID,914.538,VALID,0,VALID,100,VALID,0.0169808,VALID,18.6236,VALID,123,VALID,1.2003,
2006-03-17, 03:20:01,VALID,914.529,VALID,0,VALID,100,VALID,0,VALID,19.5329,VALID,130,VALID,1.04459,
2006-03-17, 03:21:00,VALID,914.521,VALID,0,VALID,100,VALID,0.0169808,VALID,19.0041,VALID,124,VALID,1.18537,
2006-03-17, 03:22:00,VALID,914.497,VALID,0,VALID,100,VALID,0.0339617,VALID,18.8225,VALID,116,VALID,1.29524,
2006-03-17, 03:23:00,VALID,914.483,VALID,0,VALID,100,VALID,0.0169808,VALID,20.0501,VALID,107,VALID,0.910714,
2006-03-17, 03:24:00,VALID,914.452,VALID,0,VALID,100,VALID,0.0169808,VALID,19.3709,VALID,103,VALID,0.989139,
2006-03-17, 03:25:00,VALID,914.402,VALID,0,VALID,100,VALID,0,VALID,19.1689,VALID,109,VALID,0.943638,
2006-03-17, 03:26:00,VALID,914.373,VALID,0,VALID,100,VALID,0.0339617,VALID,18.9797,VALID,107,VALID,1.29913,
2006-03-17, 03:27:00,VALID,914.352,VALID,0,VALID,100,VALID,0,VALID,18.9067,VALID,102,VALID,1.07774,
2006-03-17, 03:28:01,VALID,914.325,VALID,0,VALID,100,VALID,0.0169808,VALID,19.3629,VALID,105,VALID,1.17951,
2006-03-17, 03:29:00,VALID,914.308,VALID,0,VALID,100,VALID,-0.0849042,VALID,18.8785,VALID,91,VALID,1.3105,
2006-03-17, 03:30:01,VALID,914.292,VALID,0,VALID,100,VALID,-0.0849042,VALID,18.7114,VALID,90,VALID,1.05583,
2006-03-17, 03:31:00,VALID,914.286,VALID,0,VALID,100,VALID,-0.0679233,VALID,18.5761,VALID,84,VALID,1.008,
2006-03-17, 03:32:00,VALID,914.284,VALID,0,VALID,100,VALID,-0.0679233,VALID,18.7454,VALID,69,VALID,0.924924,
2006-03-17, 03:33:01,VALID,914.279,VALID,0,VALID,100,VALID,-0.0679233,VALID,19.3329,VALID,46,VALID,1.14193,
2006-03-17, 03:34:00,VALID,914.271,VALID,0,VALID,100,VALID,-0.0679233,VALID,19.1626,VALID,42,VALID,1.00781,
2006-03-17, 03:35:00,VALID,914.259,VALID,0,VALID,100,VALID,-0.0679233,VALID,18.7173,VALID,64,VALID,1.04897,
2006-03-17, 03:36:00,VALID,914.249,VALID,0,VALID,100,VALID,-0.101885,VALID,19.4184,VALID,92,VALID,1.1393,
2006-03-17, 03:37:00,VALID,914.211,VALID,0,VALID,100,VALID,-0.0509425,VALID,19.0305,VALID,108,VALID,1.05785,
2006-03-17, 03:38:00,VALID,914.191,VALID,0,VALID,100,VALID,-0.0509425,VALID,19.2257,VALID,114,VALID,0.859545,
2006-03-17, 03:39:00,VALID,914.181,VALID,0,VALID,100,VALID,0.0169808,VALID,18.9334,VALID,119,VALID,0.821075,
2006-03-17, 03:40:00,VALID,914.172,VALID,0,VALID,100,VALID,0,VALID,19.0583,VALID,122,VALID,0.887091,
2006-03-17, 03:41:00,VALID,914.175,VALID,0,VALID,100,VALID,0.0339617,VALID,18.6389,VALID,128,VALID,1.13699,